Regional Weather Roundup
Issued by NWS

Home | Current Version | Previous Version | Graphics & Text | Print | Product List | Glossary On
Versions: 1 2 3 4 5 6 7 8 9 10 11 12 13 14 15 16 17 18 19 20 21 22 23 24 25 26 27 28 29 30 31 32 33 34 35 36 37 38 39 40 41 42 43 44 45 46 47 48 49 50
000
ASUS45 KTFX 241710
RWRMT
MONTANA REGIONAL WEATHER ROUNDUP
NATIONAL WEATHER SERVICE GREAT FALLS MT
1000 AM MST TUE JAN 24 2017

NOTE: "FAIR" INDICATES FEW OR NO CLOUDS BELOW 12000 FEET WITH NO
SIGNIFICANT WEATHER AND/OR OBSTRUCTIONS TO VISIBILITY.

MTZ001>007-043-241800-
WEST OF THE DIVIDE

CITY           SKY/WX    TMP DP  RH WIND       PRES   REMARKS
KALISPELL      MOSUNNY    5   2  87 CALM      29.97R
MISSOULA       CLOUDY    20  14  77 SE7       29.97R WCI  11
BUTTE          SUNNY      2  -3  80 SE5       29.84R
MULLAN PASS    FOG       22  18  85 CALM      29.81R VSB 1/4
ANACONDA         N/A     18   9  68 CALM      29.88R
DEER LODGE       N/A      9   5  85 CALM      29.92R
EUREKA           N/A     19  16  86 CALM      30.00R
HAMILTON         N/A     16   9  73 CALM      29.94R
PLAINS           N/A     25  19  77 CALM      29.98R
RONAN            N/A     20  17  88 CALM      29.98R VSB 1
THOMPSON FALLS   N/A     24  19  81 E2        30.02R
$$

MTZ008-052>055-241800-
SOUTHWEST MONTANA

CITY           SKY/WX    TMP DP  RH WIND       PRES   REMARKS
BOZEMAN        CLOUDY    16  11  80 NW6       29.88R WCI   7
DILLON         CLOUDY    13   5  70 E7        29.81R WCI   3
W YELLOWSTONE  CLOUDY    16   7  67 NE10      29.69R WCI   3
ENNIS          CLOUDY    18   9  68 NE12G20   29.84R WCI   5
TWIN BRIDGES     N/A     19   3  49 S15       29.82R WCI   5
$$

MTZ009-010-012-014-046-048-049-054-241800-
EAST SLOPES AND CENTRAL MONTANA

CITY           SKY/WX    TMP DP  RH WIND       PRES   REMARKS
CUT BANK       CLOUDY    13   9  84 NW9       29.86R WCI   1
GREAT FALLS    SUNNY     15  10  80 SW12      29.88S WCI   2
MALMSTROM AFB  SUNNY     17  13  87 SW8       29.90S WCI   6
HELENA         CLOUDY     5   1  83 CALM      29.91R FOG
BOWMANS CRNR     N/A      8   7  93 SW10      29.85R WCI  -6
CHOTEAU          N/A     18  12  79 S6        29.89R WCI   9
CONRAD           N/A     11   8  87 NW2       29.90R
POWER            N/A      7   5  90 SW5       29.87R
RAYNESFORD       N/A     11   9  88 CALM      29.88R
ULM              N/A     15  10  83 MISG      29.90S
$$

MTZ011-013-016-021-045-047-050-051-241800-
NORTH CENTRAL MONTANA

CITY           SKY/WX    TMP DP  RH WIND       PRES   REMARKS
HAVRE          CLOUDY    18  15  88 W3        29.93S
LEWISTOWN      CLOUDY    18  13  80 SW6       29.85R WCI  10
CHINOOK          N/A     19  14  79 NW9       29.94S WCI   9
DENTON         PTSUNNY   13  10  88 S7        29.85R WCI   3
FORT BENTON      N/A     19  12  73 MISG      29.94R
GEYSER           N/A     19  14  81 W13       29.85R WCI   7
GRASS RANGE      N/A     20  14  77 W17       29.82S WCI   6
JUDITH GAP       N/A     15  12  90 N13       29.81R WCI   0
ROY            PTSUNNY   20  16  83 MISG      29.85R
STANFORD         N/A     19  16  87 NW6       29.83S WCI  11
WINIFRED       CLOUDY    19  18  96 W9        29.86R WCI   8
$$

MTZ017>020-022>027-061-062-241800-
NORTHEAST MONTANA

CITY           SKY/WX    TMP DP  RH WIND       PRES   REMARKS
GLASGOW        LGT SNOW  20  16  84 W12       29.92R FOG     WCI   8
JORDAN           N/A     22  18  85 W8        29.90R WCI  12
SIDNEY         FLURRIES  21  16  81 NW10      29.92S WCI  10
WOLF POINT     CLOUDY    22  16  78 SW6       29.94R WCI  14
PLENTYWOOD       N/A     16  10  79 NW10      29.90R WCI   3
POPLAR           N/A     19  14  79 W6        29.94  WCI  11
SCOBEY           N/A     15   7  71 W5        29.88R
$$

MTZ028>42-056>058-241800-
SOUTHCENTRAL AND SOUTHEAST MONTANA

CITY           SKY/WX    TMP DP  RH WIND       PRES   REMARKS
BAKER          CLOUDY    19  15  84 NW12      29.87R WCI   7
BILLINGS       CLOUDY    19  17  92 E6        29.88R WCI  11
LIVINGSTON     CLOUDY    12   5  73 NW9       29.84R WCI   0
MILES CITY     CLOUDY    21  17  84 NW7       29.91R WCI  12
BIG TIMBER     CLOUDY    19  18  93 W8        29.86R FOG     WCI   9
EKALAKA          N/A     17  12  80 N5        29.83R
FORSYTH          N/A    N/A N/A N/A CALM      29.91S
HARLOWTON        N/A     16   9  73 W6        29.84R WCI   8
LAUREL           N/A     20  15  81 NE6       29.87R WCI  12
$$

REGIONAL REPORTS...DAKOTAS

CITY           SKY/WX    TMP DP  RH WIND       PRES   REMARKS
WILLISTON      FLURRIES  20  15  81 NW8       29.92R WCI  10
MINOT          CLOUDY    23  16  74 W14       29.88R WCI  11
DICKINSON      CLOUDY    20  15  81 NW9       29.84R WCI   9
BEACH          FLURRIES  18  18 100 NW12      29.90S WCI   5
CROSBY         FLURRIES  18  16  93 NW8       29.93R WCI   7
TIOGA          FLURRIES  18  18 100 NW12      29.89S WCI   5
WATFORD CITY   FLURRIES  18  14  86 NW10      29.90R WCI   6
BISMARCK       CLOUDY    25  18  74 N7        29.90S WCI  17
GRAND FORKS    CLOUDY    28  20  71 W8        29.89R WCI  20
FARGO          CLOUDY    28  22  78 NW8       29.90S WCI  20
BUFFALO SD       N/A     24  19  81 N8        29.78R WCI  15
RAPID CITY     LGT SNOW  20  18  92 NW22      29.78R FOG     WCI   3
$$

REGIONAL REPORTS...WYOMING/IDAHO/WASHINGTON

CITY           SKY/WX    TMP DP  RH WIND       PRES   REMARKS
GILLETTE       LGT SNOW  16  13  88 N15       29.78R VSB 1   WCI   1
SHERIDAN       LGT SNOW  21  17  84 CALM      29.83R FOG
BUFFALO WY     LGT SNOW  19  14  81 N17       29.76R WCI   4
CODY           LGT SNOW  18  15  88 N13       29.77R FOG     WCI   5
YELLOWSTONE LA   N/A     12   7  80 CALM      29.64R
IDAHO FALLS    LGT SNOW  23  22  96 N16       29.73R VSB 1   WCI  10
SALMON         CLOUDY    12  10  92 CALM      29.86R
BOISE          MOSUNNY   23  18  81 NW7       29.84R WCI  15
SPOKANE        LGT SNOW  29  27  92 W6        30.00R VSB 1   WCI  23
$$

REGIONAL REPORTS...ALBERTA

CITY           SKY/WX    TMP DP  RH WIND       PRES   REMARKS
EDMONTON       CLOUDY    18  10  73 S2        29.89S FOG
CALGARY        PTSUNNY   23  19  86 SW6       29.86R WCI  16
LETHBRIDGE     PTSUNNY   19  16  86 W5        29.90R
MEDICINE HAT   CLOUDY    18  18 100 N3        29.94S FOG
WATERTON GATE    N/A     21  16  79 S3          N/A
CARDSTON         N/A     21  14  73 S1          N/A
MILK RIVER       N/A     10   9  92 E1          N/A
$$

REGIONAL REPORTS...SASKATCHEWAN

CITY           SKY/WX    TMP DP  RH WIND       PRES   REMARKS
SWIFT CURRENT  LGT SNOW  10   9  92 NW13      29.88R WCI  -5
REGINA         FLURRIES  16  10  79 NW12      29.91R WCI   3
SASKATOON      FLURRIES   9   3  78 N12       29.98R WCI  -6
CYPRESS HILLS    N/A     10   7  85 CALM        N/A
ROCKGLEN         N/A     12   9  85 NW13        N/A  WCI  -3
$$



USA.gov is the U.S. government's official web portal to all federal, state and local government web resources and services.